This is the latest recevied weather packets stored in our database for station/object DG5TS-10. If no packets are shown the sender has not sent any weather packets the latest 10 day(s).
| Time | Temp. | Humidity | Pressure | Rain* | Wind** | Luminosity | Snow |
|---|---|---|---|---|---|---|---|
| 1778156324 | 18.89° C | 40% | 1016.8 hPa | - | - | - | - |
| 1778155424 | 18.89° C | 39% | 1016.8 hPa | - | - | - | - |
| 1778154524 | 18.33° C | 39% | 1016.6 hPa | - | - | - | - |
| 1778153628 | 18.33° C | 39% | 1016.6 hPa | - | - | - | - |
| 1778152574 | 18.89° C | 38% | 1016.5 hPa | - | - | - | - |
| 1778151519 | 18.89° C | 38% | 1016.3 hPa | - | - | - | - |
| 1778150464 | 18.89° C | 38% | 1016.3 hPa | - | - | - | - |
| 1778149408 | 17.78° C | 40% | 1016.2 hPa | - | - | - | - |
| 1778148353 | 17.22° C | 41% | 1016 hPa | - | - | - | - |
| 1778147298 | 17.22° C | 40% | 1015.8 hPa | - | - | - | - |
| 1778146243 | 17.22° C | 40% | 1015.6 hPa | - | - | - | - |
| 1778145188 | 16.67° C | 40% | 1015.4 hPa | - | - | - | - |
| 1778144133 | 15.56° C | 42% | 1015.2 hPa | - | - | - | - |
| 1778143078 | 15° C | 44% | 1015.1 hPa | - | - | - | - |
| 1778142022 | 15° C | 44% | 1014.8 hPa | - | - | - | - |
| 1778140967 | 14.44° C | 46% | 1014.8 hPa | - | - | - | - |
| 1778139912 | 13.89° C | 46% | 1014.5 hPa | - | - | - | - |
| 1778138857 | 13.33° C | 47% | 1014.4 hPa | - | - | - | - |
| 1778137801 | 13.33° C | 48% | 1014.1 hPa | - | - | - | - |
| 1778136747 | 13.33° C | 47% | 1014 hPa | - | - | - | - |
| 1778135692 | 13.33° C | 47% | 1013.8 hPa | - | - | - | - |
| 1778134636 | 13.33° C | 48% | 1013.5 hPa | - | - | - | - |
| 1778133682 | 12.78° C | 49% | 1013.3 hPa | - | - | - | - |
| 1778132779 | 13.33° C | 48% | 1013.1 hPa | - | - | - | - |
| 1778131874 | 12.78° C | 49% | 1012.9 hPa | - | - | - | - |
* Rain since midnight (hover to see other rain measurements)
** Current wind speed in m/s (hover to see current wind gust speed)